Weather in Gervyaty

Belarus     54°41′18″N   26°08′37″E
temp.,
°C
wind,
m/s
gust,
m/s
humid.,
%
clouds,
%
prec.,
mm/h
press.,
hPa
HPBL,
m
14 april, wed
wed1400:00+4nnw5887100 0.0 1020451
03:00+3nnw4890100 0.0 1019477
06:00+3n4993100 0.0 1019476
09:00+2n4994100 0.8 1019475
12:00+3nne41092100 0.6 1019516
15:00+3nne51194100 1.5 1019525
18:00+3nne51194100 0.4 1018560
21:00+4ne51193100 1.0 1019531
15 april, thu
thu1500:00+3ne51293100 1.3 1018487
03:00+4ne51292100 1.6 1018489
06:00+4ne51290100 0.4 1018524
09:00+4ne51189100 0.4 1019550
12:00+7ne61080100 0.2 1019642
15:00+4nne51287100 2.1 1019671
18:00+4ne61391100 0.9 1018674
21:00+4nne61393100 1.8 1018638
16 april, fri
fri1600:00+5ne51294100 0.0 1017640
03:00+5nne61394100 0.6 1016615
06:00+5ne51295100 0.1 1017550
09:00+6ne51192100 0.1 1018563
12:00+8ne5987100 0.0 1018741
15:00+9ne5885100 0.0 1019739
18:00+9ne5986100 0.0 1019912
21:00+7ne41193100 1.4 1020498
17 april, sat
sat1700:00+8ene4109498 1.1 1020548
03:00+8ne3896100 1.1 1020332
06:00+8ne4996100 0.3 1021398
09:00+9e5887100 0.4 1022649
12:00+10ene4679100 0.0 1023821
15:00+12ene467999 0.1 1023928
18:00+11ene4781100 0.1 1024661
21:00+8ene2794100 0.1 1024224
18 april, sun
sun1800:00+10ene31087100 0.0 1024471
03:00+9ene4118684 0.0 1024417
06:00+7ene3109232 0.0 1024287
09:00+9e487497 0.0 1024442
12:00+14e565731 0.0 10241036
15:00+16e565032 0.0 10241812
18:00+13e3764100 0.0 1025384
21:00+11ese3973100 0.1 1026413